Weather History for Crestview, FL

Change the Weather History Date:

Friday, February 15, 2013

  Actual Average Record
Temperature  
Mean Temperature 48 °F -  
Max Temperature 66 °F 68 °F 78 °F (1949)
Min Temperature 30 °F 46 °F 21 °F (1999)
Degree Days  
Heating Degree Days 17    
Moisture  
Dew Point 37 °F    
Average Humidity 71    
Maximum Humidity 96    
Minimum Humidity 29    
Precipitation  
Precipitation 0.00 in - - ()
Sea Level Pressure  
Sea Level Pressure 30.10 in    
Wind  
Wind Speed 1 mph (NNW)    
Max Wind Speed 7 mph    
Max Gust Speed -    
Visibility 9 miles    
Events      
Averages and records for this station are not official NWS values.
T = Trace of Precipitation, MM = Missing Value Source: NWS Daily Summary

Daily Weather History Graph

Daily Weather History Graph

Search for Another Location

Airport:

Trip Planner

Search our weather history database for the weather conditions in past years. The results will help you decide how hot, cold, wet, or windy it might be!

Date:

Astronomy

Feb. 15, 2013 Rise Set
Actual Time 6:26 AM CST 5:34 PM CST
Civil Twilight 6:01 AM CST 5:58 PM CST
Nautical Twilight 5:33 AM CST 6:27 PM CST
Astronomical Twilight 5:05 AM CST 6:55 PM CST
Moon 9:28 AM CST (2/15) 11:06 PM CST (2/15)
Length of Visible Light 11h 56m
Length of Day
11h 07m
Waxing Crescent, 30% of the Moon is Illuminated
Feb 15
Waxing Crescent
Feb 17
First Quarter
Feb 25
Full
Mar 4
Last Quarter
Mar 11
New

Hourly Weather History & Observations

Time (CST) Temp. Windchill Dew Point Humidity Pressure Visibility Wind Dir Wind Speed Gust Speed Precip Events Conditions
12:53 AM 35.1 °F - 34.0 °F 96% 30.11 in 6.0 mi Calm Calm - N/A   Clear
1:53 AM 33.1 °F - 32.0 °F 96% 30.11 in 6.0 mi Calm Calm - N/A   Clear
2:53 AM 32.0 °F - 30.0 °F 92% 30.11 in 6.0 mi Calm Calm - N/A   Clear
3:53 AM 32.0 °F - 30.0 °F 92% 30.12 in 6.0 mi Calm Calm - N/A   Clear
4:53 AM 30.9 °F - 30.0 °F 96% 30.12 in 7.0 mi Calm Calm - N/A   Clear
5:53 AM 30.9 °F - 30.0 °F 96% 30.14 in 8.0 mi Calm Calm - N/A   Clear
6:53 AM 32.0 °F - 30.0 °F 92% 30.16 in 8.0 mi Calm Calm - N/A   Clear
7:53 AM 44.1 °F - 42.1 °F 93% 30.17 in 9.0 mi Calm Calm - N/A   Clear
8:53 AM 52.0 °F - 44.1 °F 74% 30.18 in 10.0 mi Calm Calm - N/A   Clear
9:53 AM 59.0 °F - 41.0 °F 51% 30.17 in 10.0 mi NNE 4.6 mph - N/A   Clear
10:53 AM 63.0 °F - 39.9 °F 43% 30.15 in 10.0 mi NNE 3.5 mph - N/A   Clear
11:53 AM 64.9 °F - 37.0 °F 36% 30.13 in 10.0 mi NNE 6.9 mph - N/A   Clear
12:53 PM 63.0 °F - 36.0 °F 37% 30.08 in 10.0 mi WNW 3.5 mph - N/A   Clear
1:53 PM 64.9 °F - 33.1 °F 31% 30.06 in 10.0 mi WNW 5.8 mph - N/A   Clear
2:53 PM 66.0 °F - 35.1 °F 32% 30.05 in 10.0 mi NE 5.8 mph - N/A   Clear
3:53 PM 66.0 °F - 33.1 °F 29% 30.04 in 10.0 mi NW 4.6 mph - N/A   Clear
4:53 PM 63.0 °F - 34.0 °F 34% 30.04 in 10.0 mi NNW 3.5 mph - N/A   Clear
5:53 PM 54.0 °F - 42.1 °F 64% 30.05 in 10.0 mi Calm Calm - N/A   Clear
6:53 PM 48.9 °F - 43.0 °F 80% 30.06 in 10.0 mi South 3.5 mph - N/A   Clear
7:53 PM 46.0 °F - 42.1 °F 86% 30.07 in 10.0 mi Calm Calm - N/A   Clear
8:53 PM 45.0 °F 43.5 °F 42.1 °F 90% 30.08 in 10.0 mi WSW 3.5 mph - N/A   Clear
9:53 PM 46.0 °F - 42.1 °F 86% 30.08 in 10.0 mi Calm Calm - N/A   Clear
10:53 PM 43.0 °F - 41.0 °F 93% 30.07 in 10.0 mi Calm Calm - N/A   Clear
11:53 PM 48.0 °F - 41.0 °F 77% 30.07 in 10.0 mi WNW 6.9 mph - N/A   Clear